JBU1818 TTPP-KJFK

Flight info

Callsign JBU1818
Flight time N/A
Altitude 32000
Route PERRY UG449 ANADA DCT KINCH/M079F340 L455 SAVIK/N0456F340 Y486 OWENZ Y495 CAMRN
Aircraft A321/M-SDE3FGHIRWY/LB1

Departure

Time 2026-05-09 10:58
Airport Piarco International Airport (TTPP)

Arrival

Time N/A
Airport John F. Kennedy International Airport (KJFK)
Time Latitude Longitude Altitude Speed Heading
2026-05-09 10:46 10.59961 -61.33997 49 ft 0 kts
2026-05-09 10:48 10.59960 -61.33997 49 ft 1 kts
2026-05-09 10:49 10.59946 -61.33999 48 ft 3 kts
2026-05-09 10:49 10.59926 -61.34002 49 ft 3 kts
2026-05-09 10:49 10.59906 -61.34005 49 ft 3 kts
2026-05-09 10:49 10.59886 -61.34008 49 ft 3 kts
2026-05-09 10:50 10.59866 -61.34007 46 ft 3 kts 347°
2026-05-09 10:50 10.59847 -61.34001 49 ft 3 kts 331°
2026-05-09 10:50 10.59834 -61.33992 48 ft 1 kts 321°
2026-05-09 10:50 10.59830 -61.33989 49 ft 0 kts 321°
2026-05-09 10:52 10.59830 -61.33990 49 ft 0 kts 321°
2026-05-09 10:53 10.59832 -61.33991 49 ft 1 kts 321°
2026-05-09 10:53 10.59839 -61.34012 49 ft 6 kts 274°
2026-05-09 10:53 10.59836 -61.34083 49 ft 14 kts 268°
2026-05-09 10:53 10.59787 -61.34176 49 ft 19 kts 189°
2026-05-09 10:54 10.59703 -61.34227 49 ft 9 kts 276°
2026-05-09 10:54 10.59705 -61.34293 49 ft 10 kts 268°
2026-05-09 10:54 10.59703 -61.34371 49 ft 12 kts 269°
2026-05-09 10:54 10.59702 -61.34459 49 ft 13 kts 269°
2026-05-09 10:55 10.59653 -61.34527 49 ft 14 kts 187°
2026-05-09 10:55 10.59552 -61.34527 49 ft 15 kts 179°
2026-05-09 10:55 10.59445 -61.34532 50 ft 16 kts 200°
2026-05-09 10:55 10.59408 -61.34631 50 ft 16 kts 265°
2026-05-09 10:56 10.59386 -61.34748 47 ft 18 kts 257°
2026-05-09 10:56 10.59355 -61.34870 50 ft 18 kts 271°
2026-05-09 10:56 10.59348 -61.34997 48 ft 18 kts 268°
2026-05-09 10:56 10.59347 -61.35129 49 ft 19 kts 270°
2026-05-09 10:57 10.59440 -61.35192 47 ft 18 kts
2026-05-09 10:57 10.59533 -61.35166 50 ft 6 kts 48°
2026-05-09 10:57 10.59533 -61.35143 50 ft 1 kts 88°
2026-05-09 10:57 10.59534 -61.35114 49 ft 15 kts 88°
2026-05-09 10:58 10.59535 -61.34787 51 ft 80 kts 90°
2026-05-09 10:58 10.59537 -61.34007 49 ft 139 kts 90°
2026-05-09 10:58 10.59538 -61.32855 53 ft 185 kts 90°
2026-05-09 10:58 10.59539 -61.31556 812 ft 167 kts 89°
2026-05-09 10:59 10.59528 -61.30452 1703 ft 158 kts 91°
2026-05-09 10:59 10.59433 -61.29324 2322 ft 161 kts 93°
2026-05-09 10:59 10.59350 -61.28207 3026 ft 154 kts 88°
2026-05-09 10:59 10.59470 -61.27190 3651 ft 139 kts 74°
2026-05-09 11:00 10.59916 -61.26275 3862 ft 154 kts 50°
2026-05-09 11:00 10.60889 -61.25718 4065 ft 173 kts
2026-05-09 11:00 10.62090 -61.25995 4387 ft 185 kts 336°
2026-05-09 11:00 10.63257 -61.26594 4735 ft 192 kts 336°
2026-05-09 11:01 10.64448 -61.27272 5070 ft 201 kts 330°
2026-05-09 11:01 10.65687 -61.28055 5213 ft 218 kts 329°
2026-05-09 11:01 10.66550 -61.28616 5312 ft 226 kts 329°
2026-05-09 11:01 10.67915 -61.29514 5463 ft 241 kts 329°
2026-05-09 11:02 10.69385 -61.30491 5553 ft 262 kts 329°
2026-05-09 11:02 10.70961 -61.31554 5790 ft 279 kts 327°
2026-05-09 11:02 10.72589 -61.32663 6290 ft 284 kts 328°
2026-05-09 11:02 10.74240 -61.33791 6844 ft 287 kts 327°
2026-05-09 11:03 10.75909 -61.34933 7449 ft 289 kts 327°
2026-05-09 11:03 10.77554 -61.36060 7867 ft 289 kts 327°
2026-05-09 11:03 10.79255 -61.37222 8294 ft 292 kts 327°
2026-05-09 11:03 10.80922 -61.38361 8879 ft 293 kts 327°
2026-05-09 11:04 10.82621 -61.39524 9437 ft 295 kts 327°
2026-05-09 11:04 10.84329 -61.40691 9968 ft 297 kts 327°
2026-05-09 11:04 10.86075 -61.41884 10208 ft 310 kts 327°
2026-05-09 11:04 10.87915 -61.43140 10337 ft 327 kts 327°
2026-05-09 11:05 10.89853 -61.44462 10462 ft 343 kts 327°
2026-05-09 11:05 10.91877 -61.45844 10578 ft 359 kts 327°
2026-05-09 11:05 10.93995 -61.47289 10696 ft 374 kts 327°
2026-05-09 11:05 10.96188 -61.48788 10872 ft 385 kts 327°
2026-05-09 11:06 10.98429 -61.50324 11234 ft 390 kts 327°
2026-05-09 11:06 11.00693 -61.51878 11682 ft 393 kts 327°
2026-05-09 11:06 11.02968 -61.53439 12154 ft 395 kts 326°
2026-05-09 11:06 11.05259 -61.55008 12608 ft 398 kts 326°
2026-05-09 11:07 11.07566 -61.56590 13072 ft 401 kts 327°
2026-05-09 11:07 11.09891 -61.58183 13530 ft 404 kts 327°
2026-05-09 11:07 11.12232 -61.59784 13962 ft 407 kts 327°
2026-05-09 11:07 11.14558 -61.61373 14375 ft 409 kts 327°
2026-05-09 11:08 11.16934 -61.62994 14794 ft 411 kts 326°
2026-05-09 11:08 11.19316 -61.64623 15215 ft 413 kts 326°
2026-05-09 11:08 11.21707 -61.66263 15627 ft 415 kts 326°
2026-05-09 11:08 11.24107 -61.67916 16052 ft 417 kts 326°
2026-05-09 11:09 11.26517 -61.69579 16465 ft 420 kts 326°
2026-05-09 11:09 11.28945 -61.71249 16863 ft 422 kts 326°
2026-05-09 11:09 11.31393 -61.72924 17242 ft 424 kts 326°
2026-05-09 11:09 11.33845 -61.74603 17615 ft 426 kts 327°
2026-05-09 11:10 11.36313 -61.76295 17959 ft 429 kts 327°
2026-05-09 11:10 11.38794 -61.77996 18297 ft 431 kts 326°
2026-05-09 11:10 11.41288 -61.79709 18593 ft 433 kts 327°
2026-05-09 11:10 11.43788 -61.81426 18884 ft 434 kts 327°
2026-05-09 11:11 11.46265 -61.83126 19191 ft 435 kts 328°
2026-05-09 11:11 11.48781 -61.84855 19464 ft 438 kts 327°
2026-05-09 11:11 11.51309 -61.86592 19755 ft 439 kts 327°
2026-05-09 11:11 11.53848 -61.88335 20029 ft 441 kts 327°
2026-05-09 11:12 11.56403 -61.90090 20312 ft 442 kts 328°
2026-05-09 11:12 11.58957 -61.91846 20588 ft 444 kts 328°
2026-05-09 11:12 11.61526 -61.93612 20823 ft 446 kts 328°
2026-05-09 11:12 11.64103 -61.95384 21052 ft 448 kts 328°
2026-05-09 11:13 11.66698 -61.97167 21297 ft 450 kts 329°
2026-05-09 11:13 11.69299 -61.98957 21554 ft 452 kts 329°
2026-05-09 11:13 11.71905 -62.00755 21792 ft 453 kts 329°
2026-05-09 11:13 11.74517 -62.02559 22027 ft 454 kts 329°
2026-05-09 11:14 11.77145 -62.04369 22276 ft 456 kts 329°
2026-05-09 11:14 11.79781 -62.06181 22522 ft 457 kts 329°
2026-05-09 11:14 11.82387 -62.07976 22767 ft 459 kts 329°
2026-05-09 11:14 11.85039 -62.09803 23011 ft 461 kts 329°
2026-05-09 11:15 11.87702 -62.11638 23257 ft 462 kts 330°
2026-05-09 11:15 11.90371 -62.13478 23486 ft 464 kts 330°
2026-05-09 11:15 11.93047 -62.15321 23706 ft 465 kts 330°
2026-05-09 11:15 11.95732 -62.17169 23916 ft 466 kts 330°
2026-05-09 11:16 11.98425 -62.19024 24124 ft 467 kts 330°
2026-05-09 11:16 12.01115 -62.20881 24342 ft 467 kts 330°
2026-05-09 11:16 12.03814 -62.22750 24547 ft 468 kts 330°
2026-05-09 11:16 12.06515 -62.24621 24720 ft 470 kts 330°
2026-05-09 11:17 12.09226 -62.26494 24912 ft 471 kts 330°
2026-05-09 11:17 12.11947 -62.28370 25115 ft 472 kts 330°
2026-05-09 11:17 12.14671 -62.30248 25325 ft 473 kts 330°
2026-05-09 11:17 12.17396 -62.32129 25542 ft 474 kts 330°
2026-05-09 11:18 12.20131 -62.34020 25752 ft 475 kts 330°
2026-05-09 11:18 12.22865 -62.35914 25972 ft 475 kts 329°
2026-05-09 11:18 12.25597 -62.37809 26281 ft 474 kts 329°
2026-05-09 11:18 12.28322 -62.39699 26604 ft 472 kts 329°
2026-05-09 11:19 12.31037 -62.41579 26922 ft 471 kts 329°
2026-05-09 11:19 12.33742 -62.43452 27236 ft 469 kts 329°
2026-05-09 11:19 12.36442 -62.45319 27553 ft 467 kts 329°
2026-05-09 11:19 12.39128 -62.47179 27864 ft 466 kts 329°
2026-05-09 11:20 12.41810 -62.49036 28178 ft 464 kts 329°
2026-05-09 11:20 12.44482 -62.50885 28483 ft 463 kts 329°
2026-05-09 11:20 12.47147 -62.52733 28787 ft 462 kts 329°
2026-05-09 11:20 12.49774 -62.54554 29074 ft 462 kts 329°
2026-05-09 11:21 12.52431 -62.56399 29376 ft 460 kts 329°
2026-05-09 11:21 12.55076 -62.58239 29695 ft 459 kts 329°
2026-05-09 11:21 12.57716 -62.60073 30006 ft 458 kts 329°
2026-05-09 11:21 12.60346 -62.61897 30273 ft 456 kts 329°
2026-05-09 11:22 12.62974 -62.63717 30528 ft 455 kts 329°
2026-05-09 11:22 12.65593 -62.65530 30792 ft 454 kts 329°
2026-05-09 11:22 12.68207 -62.67340 31043 ft 453 kts 329°
2026-05-09 11:22 12.70817 -62.69147 31294 ft 452 kts 329°
2026-05-09 11:23 12.73419 -62.70953 31529 ft 451 kts 329°
2026-05-09 11:23 12.76012 -62.72757 31779 ft 450 kts 329°
2026-05-09 11:23 12.78602 -62.74559 31967 ft 449 kts 329°
2026-05-09 11:24 12.83782 -62.78166 32022 ft 451 kts 329°
2026-05-09 11:24 12.88970 -62.81777 32020 ft 451 kts 329°
2026-05-09 11:25 12.94126 -62.85362 32021 ft 451 kts 329°
2026-05-09 11:25 12.99311 -62.88976 32016 ft 451 kts 329°
2026-05-09 11:26 13.04495 -62.92597 32017 ft 451 kts 329°
2026-05-09 11:26 13.09682 -62.96212 32022 ft 451 kts 329°
2026-05-09 11:27 13.14873 -62.99833 32025 ft 450 kts 329°
2026-05-09 11:27 13.20061 -63.03446 32018 ft 451 kts 329°
2026-05-09 11:28 13.25240 -63.07070 32022 ft 450 kts 329°
2026-05-09 11:28 13.30535 -63.10487 32014 ft 448 kts 332°
2026-05-09 11:29 13.35946 -63.13685 32004 ft 449 kts 333°
2026-05-09 11:29 13.41357 -63.16889 32010 ft 449 kts 332°
2026-05-09 11:30 13.46742 -63.20168 32013 ft 450 kts 332°
2026-05-09 11:30 13.52120 -63.23478 32026 ft 450 kts 332°
2026-05-09 11:31 13.57467 -63.26761 32025 ft 450 kts 332°
2026-05-09 11:31 13.62856 -63.30055 32025 ft 451 kts 332°
2026-05-09 11:32 13.68248 -63.33352 32029 ft 451 kts 332°
2026-05-09 11:32 13.73638 -63.36656 32032 ft 451 kts 332°
2026-05-09 11:33 13.79026 -63.39962 32028 ft 451 kts 332°
2026-05-09 11:33 13.87117 -63.44914 32032 ft 452 kts 332°
2026-05-09 11:34 13.92523 -63.48232 32032 ft 452 kts 331°
2026-05-09 11:34 13.97923 -63.51556 32034 ft 452 kts 331°
2026-05-09 11:35 14.03305 -63.54861 32037 ft 452 kts 331°
2026-05-09 11:35 14.08704 -63.58173 32036 ft 452 kts 331°
2026-05-09 11:36 14.14102 -63.61499 32035 ft 452 kts 331°
2026-05-09 11:36 14.19495 -63.64819 32034 ft 451 kts 331°
2026-05-09 11:37 14.24883 -63.68141 32038 ft 451 kts 331°
2026-05-09 11:37 14.30273 -63.71462 32039 ft 452 kts 331°
2026-05-09 11:38 14.35675 -63.74786 32031 ft 452 kts 331°
2026-05-09 11:38 14.41074 -63.78113 32035 ft 452 kts 331°
2026-05-09 11:39 14.46432 -63.81433 32035 ft 452 kts 331°
2026-05-09 11:40 14.54538 -63.86450 32038 ft 451 kts 331°
2026-05-09 11:40 14.59930 -63.89779 32037 ft 451 kts 331°
2026-05-09 11:41 14.65292 -63.93089 32038 ft 451 kts 331°
2026-05-09 11:41 14.70689 -63.96435 32037 ft 451 kts 331°
2026-05-09 11:42 14.76073 -63.99769 32033 ft 451 kts 331°
2026-05-09 11:42 14.81452 -64.03100 32036 ft 450 kts 331°
2026-05-09 11:43 14.86837 -64.06445 32024 ft 451 kts 331°
2026-05-09 11:43 14.92179 -64.09768 32026 ft 451 kts 331°
2026-05-09 11:44 14.97557 -64.13110 32021 ft 451 kts 331°
2026-05-09 11:44 15.03139 -64.16012 32023 ft 449 kts 339°
2026-05-09 11:45 15.08884 -64.18542 32032 ft 449 kts 338°
2026-05-09 11:45 15.14632 -64.21099 32031 ft 449 kts 338°
2026-05-09 11:46 15.20380 -64.23663 32033 ft 449 kts 338°
2026-05-09 11:46 15.26129 -64.26223 32035 ft 449 kts 338°
2026-05-09 11:47 15.31876 -64.28769 32038 ft 449 kts 339°
2026-05-09 11:47 15.37624 -64.31312 32036 ft 449 kts 338°
2026-05-09 11:48 15.42395 -64.33434 32034 ft 449 kts 338°
2026-05-09 11:48 15.48144 -64.35997 32037 ft 450 kts 338°
2026-05-09 11:49 15.54823 -64.38976 32040 ft 450 kts 338°
2026-05-09 11:49 15.60569 -64.41543 32043 ft 450 kts 338°
2026-05-09 11:50 15.65389 -64.43692 32044 ft 450 kts 338°
2026-05-09 11:50 15.71143 -64.46252 32047 ft 450 kts 339°
2026-05-09 11:51 15.76890 -64.48812 32048 ft 450 kts 338°
2026-05-09 11:51 15.82628 -64.51379 32050 ft 449 kts 338°
2026-05-09 11:52 15.88363 -64.53947 32051 ft 449 kts 338°
2026-05-09 11:52 15.94100 -64.56505 32049 ft 449 kts 338°
2026-05-09 11:53 15.99833 -64.59075 32042 ft 448 kts 338°
2026-05-09 11:53 16.05520 -64.61624 32038 ft 448 kts 338°
2026-05-09 11:54 16.11250 -64.64187 32040 ft 448 kts 338°
2026-05-09 11:54 16.17008 -64.66779 32036 ft 448 kts 338°
2026-05-09 11:55 16.22695 -64.69327 32029 ft 448 kts 339°
2026-05-09 11:56 16.39890 -64.77057 32040 ft 448 kts 338°
2026-05-09 11:57 16.45621 -64.79638 32042 ft 449 kts 338°
2026-05-09 11:57 16.51357 -64.82211 32047 ft 449 kts 338°
2026-05-09 11:58 16.57100 -64.84798 32050 ft 449 kts 338°
2026-05-09 11:58 16.62834 -64.87388 32051 ft 449 kts 338°
2026-05-09 11:59 16.68580 -64.89974 32054 ft 450 kts 338°
2026-05-09 11:59 16.74325 -64.92567 32058 ft 450 kts 338°
2026-05-09 12:00 16.80032 -64.95147 32061 ft 450 kts 338°
2026-05-09 12:00 16.85776 -64.97743 32061 ft 450 kts 338°
2026-05-09 12:01 16.91522 -65.00334 32049 ft 450 kts 338°
2026-05-09 12:01 16.97268 -65.02938 32050 ft 450 kts 338°
2026-05-09 12:02 17.03008 -65.05548 32050 ft 450 kts 338°
2026-05-09 12:02 17.08753 -65.08144 32048 ft 450 kts 339°
2026-05-09 12:03 17.14510 -65.10744 32045 ft 450 kts 338°
2026-05-09 12:03 17.20251 -65.13353 32039 ft 450 kts 338°
2026-05-09 12:04 17.25960 -65.15953 32047 ft 450 kts 338°
2026-05-09 12:04 17.31697 -65.18565 32045 ft 450 kts 338°
2026-05-09 12:05 17.37437 -65.21172 32048 ft 450 kts 338°